This is the latest recevied weather packets stored in our database for station/object KI5RAB. If no packets are shown the sender has not sent any weather packets the latest 10 day(s).
| Time | Temp. | Humidity | Pressure | Rain* | Wind** | Luminosity | Snow |
|---|---|---|---|---|---|---|---|
| 1778164580 | 16.11° C | 86% | 1020.1 hPa | 0 mm | - | 140 W/m² | - |
| 1778164278 | 16.11° C | 86% | 1019.5 hPa | 0 mm | - | 131 W/m² | - |
| 1778163973 | 15.56° C | 87% | 1019.7 hPa | 0 mm | - | 118 W/m² | - |
| 1778163670 | 15.56° C | 87% | 1020.1 hPa | 0 mm | - | 126 W/m² | - |
| 1778163366 | 15.56° C | 87% | 1020.1 hPa | 0 mm | - | 70 W/m² | - |
| 1778163063 | 15.56° C | 87% | 1020.3 hPa | 0 mm | - | 65 W/m² | - |
| 1778162759 | 15.56° C | 88% | 1020.5 hPa | 0 mm | - | 64 W/m² | - |
| 1778162457 | 15.56° C | 88% | 1020.3 hPa | 0 mm | - | 43 W/m² | - |
| 1778162154 | 15.56° C | 88% | 1020 hPa | 0 mm | - | 54 W/m² | - |
| 1778161851 | 15.56° C | 88% | 1020.1 hPa | 0 mm | - | 51 W/m² | - |
| 1778161548 | 15.56° C | 88% | 1019.8 hPa | 0 mm | - | 62 W/m² | - |
| 1778161243 | 15.56° C | 88% | 1019.8 hPa | 0 mm | - | 61 W/m² | - |
| 1778160940 | 15.56° C | 87% | 1020.1 hPa | 0 mm | - | 58 W/m² | - |
| 1778160638 | 15.56° C | 87% | 1020.1 hPa | 0 mm | - | 48 W/m² | - |
| 1778160334 | 15.56° C | 87% | 1020.3 hPa | 0 mm | - | 31 W/m² | - |
| 1778160031 | 15.56° C | 87% | 1020 hPa | 0 mm | - | 48 W/m² | - |
| 1778159727 | 15.56° C | 87% | 1019.9 hPa | 0 mm | - | 40 W/m² | - |
| 1778159425 | 15.56° C | 87% | 1020.2 hPa | 0 mm | - | 12 W/m² | - |
| 1778159122 | 15.56° C | 87% | 1020.1 hPa | 0 mm | - | 11 W/m² | - |
| 1778158820 | 15.56° C | 87% | 1019.7 hPa | 0 mm | - | 17 W/m² | - |
| 1778158518 | 16.11° C | 86% | 1019.8 hPa | 0 mm | - | 27 W/m² | - |
| 1778158215 | 16.11° C | 85% | 1020.1 hPa | 0 mm | - | 19 W/m² | - |
| 1778157912 | 16.11° C | 85% | 1020.1 hPa | 0 mm | - | 16 W/m² | - |
| 1778157610 | 16.11° C | 84% | 1020 hPa | 0 mm | - | 11 W/m² | - |
| 1778157307 | 16.11° C | 84% | 1019.9 hPa | 0 mm | - | 8 W/m² | - |
* Rain latest hour (hover to see other rain measurements)
** Current wind speed in m/s (hover to see current wind gust speed)